SB KEPS @ AMSAT $ORB14086.O
Orbital Elements 14086.OSCAR
HR AMSAT ORBITAL ELEMENTS FOR OSCAR SATELLITES
FROM WA5QGD FORT WORTH,TX March 27, 2014
BID: ORB14086.O
TO ALL RADIO AMATEURS BT
Satellite: AO-07
Catalog number: 07530
Epoch time: 14086.82703944
Element set: 926
Inclination: 101.4654 deg
RA of node: 071.3598 deg
Eccentricity: 0.0012397
Arg of perigee: 093.9631 deg
Mean anomaly: 023.1508 deg
Mean motion: 12.53603758 rev/day
Decay rate: -4.6e-07 rev/day^2
Epoch rev: 80132
Checksum: 297
Satellite: FO-29
Catalog number: 24278
Epoch time: 14086.13714816
Element set: 335
Inclination: 098.5176 deg
RA of node: 111.3055 deg
Eccentricity: 0.0351271
Arg of perigee: 150.4221 deg
Mean anomaly: 255.4488 deg
Mean motion: 13.53019314 rev/day
Decay rate: -2.5e-07 rev/day^2
Epoch rev: 86957
Checksum: 301
Satellite: SO-33
Catalog number: 25509
Epoch time: 14085.88057420
Element set: 716
Inclination: 031.4308 deg
RA of node: 266.7144 deg
Eccentricity: 0.0349788
Arg of perigee: 113.3420 deg
Mean anomaly: 025.2673 deg
Mean motion: 14.29406292 rev/day
Decay rate: 1.961e-05 rev/day^2
Epoch rev: 80536
Checksum: 307
Satellite: RS-22
Catalog number: 27939
Epoch time: 14086.89499270
Element set: 345
Inclination: 097.8052 deg
RA of node: 265.1078 deg
Eccentricity: 0.0013805
Arg of perigee: 010.4315 deg
Mean anomaly: 349.7182 deg
Mean motion: 14.65034165 rev/day
Decay rate: 2.009e-05 rev/day^2
Epoch rev: 56082
Checksum: 314
Satellite: VO-52
Catalog number: 28650
Epoch time: 14086.77528981
Element set: 693
Inclination: 097.5608 deg
RA of node: 095.8282 deg
Eccentricity: 0.0026932
Arg of perigee: 068.6922 deg
Mean anomaly: 291.7165 deg
Mean motion: 14.85085345 rev/day
Decay rate: 4.817e-05 rev/day^2
Epoch rev: 48114
Checksum: 357
Satellite: HO-68
Catalog number: 36122
Epoch time: 14086.70719354
Element set: 444
Inclination: 100.2595 deg
RA of node: 141.0349 deg
Eccentricity: 0.0007667
Arg of perigee: 066.4853 deg
Mean anomaly: 293.7073 deg
Mean motion: 13.16313638 rev/day
Decay rate: -4.3e-07 rev/day^2
Epoch rev: 20571
Checksum: 297
Satellite: AO-73
Catalog number: 39444
Epoch time: 14085.97639954
Element set: 100
Inclination: 097.7787 deg
RA of node: 159.4202 deg
Eccentricity: 0.0063133
Arg of perigee: 148.8551 deg
Mean anomaly: 211.6474 deg
Mean motion: 14.77865625 rev/day
Decay rate: 4.936e-05 rev/day^2
Epoch rev: 1732
Checksum: 341
/EX
SB KEPS @ AMSAT $ORB14086.D
Orbital Elements 14086.MICROS
HR AMSAT ORBITAL ELEMENTS FOR THE MICROSATS
FROM WA5QGD FORT WORTH,TX March 27, 2014
BID: ORB14086.D
TO ALL RADIO AMATEURS BT
Satellite: UO-11
Catalog number: 14781
Epoch time: 14086.78298495
Element set: 449
Inclination: 097.8609 deg
RA of node: 148.4656 deg
Eccentricity: 0.0010090
Arg of perigee: 089.7040 deg
Mean anomaly: 270.5329 deg
Mean motion: 14.81435478 rev/day
Decay rate: 1.640e-05 rev/day^2
Epoch rev: 61591
Checksum: 337
Satellite: AO-16
Catalog number: 20439
Epoch time: 14086.45454682
Element set: 986
Inclination: 098.5021 deg
RA of node: 025.3544 deg
Eccentricity: 0.0011578
Arg of perigee: 046.6131 deg
Mean anomaly: 090.4477 deg
Mean motion: 14.32316350 rev/day
Decay rate: 3.78e-06 rev/day^2
Epoch rev: 26278
Checksum: 308
Satellite: LO-19
Catalog number: 20442
Epoch time: 14085.79682533
Element set: 923
Inclination: 098.4727 deg
RA of node: 025.6144 deg
Eccentricity: 0.0012387
Arg of perigee: 038.0956 deg
Mean anomaly: 322.1102 deg
Mean motion: 14.32519899 rev/day
Decay rate: 3.91e-06 rev/day^2
Epoch rev: 26288
Checksum: 319
Satellite: AO-27
Catalog number: 22825
Epoch time: 14086.79354198
Element set: 627
Inclination: 098.6552 deg
RA of node: 033.3429 deg
Eccentricity: 0.0008797
Arg of perigee: 169.4250 deg
Mean anomaly: 220.6994 deg
Mean motion: 14.29685903 rev/day
Decay rate: 3.19e-06 rev/day^2
Epoch rev: 6915
Checksum: 348
Satellite: IO-26
Catalog number: 22826
Epoch time: 14085.89041917
Element set: 385
Inclination: 098.6492 deg
RA of node: 032.6785 deg
Eccentricity: 0.0009424
Arg of perigee: 165.5220 deg
Mean anomaly: 194.6234 deg
Mean motion: 14.29981572 rev/day
Decay rate: 3.30e-06 rev/day^2
Epoch rev: 6915
Checksum: 324
Satellite: GO-32
Catalog number: 25397
Epoch time: 14085.50796448
Element set: 308
Inclination: 098.4597 deg
RA of node: 046.6223 deg
Eccentricity: 0.0001737
Arg of perigee: 149.1590 deg
Mean anomaly: 327.1931 deg
Mean motion: 14.23422487 rev/day
Decay rate: 1.90e-06 rev/day^2
Epoch rev: 81610
Checksum: 314
Satellite: NO-44
Catalog number: 26931
Epoch time: 14086.70957068
Element set: 563
Inclination: 067.0514 deg
RA of node: 248.5536 deg
Eccentricity: 0.0005444
Arg of perigee: 276.9088 deg
Mean anomaly: 083.1393 deg
Mean motion: 14.30075078 rev/day
Decay rate: 4.08e-06 rev/day^2
Epoch rev: 65195
Checksum: 327
Satellite: SO-50
Catalog number: 27607
Epoch time: 14086.51700259
Element set: 343
Inclination: 064.5553 deg
RA of node: 121.2726 deg
Eccentricity: 0.0038395
Arg of perigee: 038.8086 deg
Mean anomaly: 321.5761 deg
Mean motion: 14.73560905 rev/day
Decay rate: 1.703e-05 rev/day^2
Epoch rev: 60544
Checksum: 299
Satellite: CO-55
Catalog number: 27844
Epoch time: 14085.98637294
Element set: 886
Inclination: 098.6996 deg
RA of node: 095.9413 deg
Eccentricity: 0.0010606
Arg of perigee: 148.2305 deg
Mean anomaly: 264.4240 deg
Mean motion: 14.21440250 rev/day
Decay rate: 5.92e-06 rev/day^2
Epoch rev: 55690
Checksum: 333
Satellite: CO-57
Catalog number: 27848
Epoch time: 14085.50014381
Element set: 827
Inclination: 098.7088 deg
RA of node: 095.1276 deg
Eccentricity: 0.0010429
Arg of perigee: 155.4312 deg
Mean anomaly: 357.8476 deg
Mean motion: 14.21136025 rev/day
Decay rate: 5.34e-06 rev/day^2
Epoch rev: 55675
Checksum: 320
Satellite: AO-51
Catalog number: 28375
Epoch time: 14086.43044426
Element set: 803
Inclination: 098.2429 deg
RA of node: 036.1622 deg
Eccentricity: 0.0082192
Arg of perigee: 238.9157 deg
Mean anomaly: 120.3948 deg
Mean motion: 14.41333017 rev/day
Decay rate: 4.32e-06 rev/day^2
Epoch rev: 51212
Checksum: 283
Satellite: CP3
Catalog number: 31129
Epoch time: 14085.96239457
Element set: 706
Inclination: 097.9262 deg
RA of node: 068.1558 deg
Eccentricity: 0.0097222
Arg of perigee: 266.9753 deg
Mean anomaly: 160.7239 deg
Mean motion: 14.54473225 rev/day
Decay rate: 2.416e-05 rev/day^2
Epoch rev: 36808
Checksum: 334
Satellite: CO-65
Catalog number: 32785
Epoch time: 14086.59392834
Element set: 905
Inclination: 097.7100 deg
RA of node: 140.5430 deg
Eccentricity: 0.0015487
Arg of perigee: 098.1056 deg
Mean anomaly: 067.2017 deg
Mean motion: 14.84958525 rev/day
Decay rate: 3.790e-05 rev/day^2
Epoch rev: 31991
Checksum: 332
Satellite: PRISM
Catalog number: 33493
Epoch time: 14086.77352432
Element set: 769
Inclination: 098.2443 deg
RA of node: 259.0277 deg
Eccentricity: 0.0017335
Arg of perigee: 352.3246 deg
Mean anomaly: 007.7768 deg
Mean motion: 14.88604662 rev/day
Decay rate: 8.869e-05 rev/day^2
Epoch rev: 28006
Checksum: 337
Satellite: SOHLA-1
Catalog number: 33496
Epoch time: 14086.15185306
Element set: 308
Inclination: 098.1588 deg
RA of node: 206.9412 deg
Eccentricity: 0.0007492
Arg of perigee: 138.0220 deg
Mean anomaly: 344.2883 deg
Mean motion: 14.70688151 rev/day
Decay rate: 1.220e-05 rev/day^2
Epoch rev: 27745
Checksum: 298
Satellite: TISAT-1
Catalog number: 36799
Epoch time: 14086.77877017
Element set: 31
Inclination: 098.0167 deg
RA of node: 178.1965 deg
Eccentricity: 0.0013122
Arg of perigee: 223.2561 deg
Mean anomaly: 136.7641 deg
Mean motion: 14.85073348 rev/day
Decay rate: 6.282e-05 rev/day^2
Epoch rev: 20063
Checksum: 309
Satellite: STUDSAT
Catalog number: 36801
Epoch time: 14086.46729247
Element set: 793
Inclination: 098.0327 deg
RA of node: 184.4199 deg
Eccentricity: 0.0010570
Arg of perigee: 200.8636 deg
Mean anomaly: 289.9336 deg
Mean motion: 14.94358200 rev/day
Decay rate: 2.6847e-04 rev/day^2
Epoch rev: 20091
Checksum: 322
Satellite: ALMASAT-1
Catalog number: 38078
Epoch time: 14086.51770115
Element set: 979
Inclination: 069.4685 deg
RA of node: 255.3886 deg
Eccentricity: 0.0620262
Arg of perigee: 140.3338 deg
Mean anomaly: 286.0218 deg
Mean motion: 14.43108710 rev/day
Decay rate: 7.6394e-04 rev/day^2
Epoch rev: 10982
Checksum: 326
Satellite: XATCOBEO
Catalog number: 38082
Epoch time: 14086.77993192
Element set: 73
Inclination: 069.4499 deg
RA of node: 180.1064 deg
Eccentricity: 0.0332509
Arg of perigee: 098.1902 deg
Mean anomaly: 004.1924 deg
Mean motion: 15.18050878 rev/day
Decay rate: 2.22598e-03 rev/day^2
Epoch rev: 11188
Checksum: 325
Satellite: CUBEBUG-1
Catalog number: 39153
Epoch time: 14086.68886018
Element set: 975
Inclination: 098.0456 deg
RA of node: 167.1561 deg
Eccentricity: 0.0016844
Arg of perigee: 251.7162 deg
Mean anomaly: 108.2218 deg
Mean motion: 14.77388246 rev/day
Decay rate: 3.285e-05 rev/day^2
Epoch rev: 4952
Checksum: 332
Satellite: ESTCUBE-1
Catalog number: 39161
Epoch time: 14086.87573115
Element set: 952
Inclination: 098.1007 deg
RA of node: 168.3703 deg
Eccentricity: 0.0008732
Arg of perigee: 298.0041 deg
Mean anomaly: 062.0284 deg
Mean motion: 14.69743720 rev/day
Decay rate: 2.559e-05 rev/day^2
Epoch rev: 4765
Checksum: 307
/EX
SB KEPS @ AMSAT $ORB14086.W
Orbital Elements 14086.WEATHER
HR AMSAT ORBITAL ELEMENTS FOR WEATHER SATELLITES
FROM WA5QGD FORT WORTH,TX March 27, 2014
BID: ORB14086.W
TO ALL RADIO AMATEURS BT
Satellite: MET-3/5
Catalog number: 21655
Epoch time: 14086.15217485
Element set: 934
Inclination: 082.5567 deg
RA of node: 054.3719 deg
Eccentricity: 0.0014214
Arg of perigee: 138.7783 deg
Mean anomaly: 221.4416 deg
Mean motion: 13.17054760 rev/day
Decay rate: 1.22e-06 rev/day^2
Epoch rev: 8718
Checksum: 299
Satellite: MET-2/21
Catalog number: 22782
Epoch time: 14086.50443638
Element set: 12
Inclination: 082.5490 deg
RA of node: 238.1030 deg
Eccentricity: 0.0023465
Arg of perigee: 133.3189 deg
Mean anomaly: 288.6923 deg
Mean motion: 13.83730417 rev/day
Decay rate: 8.0e-07 rev/day^2
Epoch rev: 3882
Checksum: 289
